sat.trackr.live / text

‹ back to catalog

STARLINK-4126

NORAD 52867 · 2022-062AP

PAYLOAD ACTIVE UNKNOWN

§ Identity

Operator
Country
US
Launch date
2022-06-17
Launch site
AFETR
Launch vehicle
Mass (kg)
RCS (m²)

Purposes: comms

External: N2YO · Heavens-Above · Gunter

§ Orbital elements

Epoch: 2026-09-20T03:27:38.994912Z

Period
93.85 min
Inclination
53.1594°
Eccentricity
0.0001400
Mean motion
15.34389939 rev/d
Perigee alt
461.8 km
Apogee alt
463.7 km
Semi-major
6,840.9 km
B*
1.1986e-5
RAAN
215.2506°
Arg perigee
88.2371°
Mean anomaly
271.8792°
Rev number
23,550

§ Raw data

STARLINK-41261 52867U 22062AP  26263.14420133  .00000029  00000+0  11986-4 0  99962 52867  53.1594 215.2506 0001400  88.2371 271.8792 15.34389939235507

JSON: /api/v1/satellites/52867 · /tle

For live sub-satellite position, see the globe view (requires WebGL).

§ Visibility from observer

Set your observer location to see the next 7 days of passes ≥ 10°. The values pass through the URL so the page stays shareable.

No JS? Fill the form by hand. The geolocation button needs JavaScript.